Date,TemperatureHighF,TemperatureAvgF,TemperatureLowF,DewpointHighF,DewpointAvgF,DewpointLowF,HumidityHigh,HumidityAvg,HumidityLow,PressureMaxIn,PressureMinIn,WindSpeedMaxMPH,WindSpeedAvgMPH,GustSpeedMaxMPH,PrecipitationSumIn
2013-1-1,19.6,5.5,-8.3,17.0,1.7,-11.0,94,88,73,30.25,30.03,12,0,13,0.00
2013-1-2,21.1,15.3,12.5,19.0,14.3,11.0,100,98,93,30.07,29.96,6,0,7,0.00
2013-1-3,20.9,13.2,9.8,19.0,9.6,4.0,95,89,77,30.25,30.07,16,2,16,0.00
2013-1-4,30.7,21.6,13.9,20.0,15.4,11.0,96,81,64,30.12,30.00,16,1,20,0.00
2013-1-5,26.1,16.7,8.3,17.0,12.4,6.0,98,88,68,30.09,29.85,12,0,14,0.00
2013-1-6,22.7,15.2,9.5,14.0,10.5,5.0,99,86,69,30.20,30.00,12,0,12,0.00
2013-1-7,36.7,29.1,14.4,26.0,23.2,11.0,96,82,69,30.03,29.89,21,1,27,0.00
2013-1-8,34.2,26.4,16.2,30.0,23.6,15.0,100,93,84,29.99,29.78,22,1,22,0.00
2013-1-9,34.2,30.3,22.9,28.0,23.6,20.0,95,80,66,30.35,29.92,26,4,26,0.00
2013-1-10,39.2,32.5,20.4,34.0,26.9,17.0,100,83,56,30.30,29.76,10,0,10,0.35
2013-1-11,44.1,36.4,33.9,41.0,36.4,34.0,100,100,100,29.76,29.42,10,0,12,0.05
2013-1-12,40.4,14.8,3.9,40.0,9.8,-2.0,100,84,74,30.07,29.43,33,6,33,0.00
2013-1-13,8.5,4.2,1.4,3.0,-0.4,-3.0,90,86,79,30.22,30.03,15,1,16,0.00
2013-1-14,14.0,7.7,4.2,6.0,3.2,0.0,95,86,71,30.38,30.21,18,1,18,0.00
2013-1-15,31.0,21.3,6.1,20.0,14.3,4.0,99,78,64,30.26,29.86,19,2,26,0.00
2013-1-16,36.7,26.4,13.7,34.0,20.2,1.0,100,81,50,30.20,29.68,22,2,25,0.01
2013-1-17,19.7,12.2,3.2,12.0,3.5,-4.0,84,71,57,30.37,30.21,15,2,18,0.00
2013-1-18,42.6,30.7,16.6,34.0,25.2,12.0,95,84,68,30.27,29.75,18,5,20,0.00
2013-1-19,39.5,23.8,2.3,33.0,18.4,-5.0,100,83,61,30.20,29.69,47,10,47,0.02
2013-1-20,8.6,2.1,-3.2,2.0,-5.1,-11.0,89,75,60,30.37,30.20,22,8,24,0.00
2013-1-21,-3.3,-7.3,-11.9,-10.0,-14.1,-19.0,84,75,66,30.30,30.23,21,8,21,0.00
2013-1-22,6.3,-3.6,-11.5,-1.0,-10.3,-17.0,84,76,67,30.37,30.21,14,3,14,0.00
2013-1-23,15.7,7.3,-5.0,9.0,-0.9,-15.0,94,73,55,30.56,30.12,32,7,32,0.00
2013-1-24,13.0,2.4,-6.7,5.0,-7.7,-17.0,73,65,54,30.62,30.16,15,4,16,0.00
2013-1-25,19.0,12.6,4.0,14.0,5.3,-2.0,89,76,62,30.28,29.94,27,8,28,0.00
2013-1-26,24.1,13.3,0.3,14.0,5.2,-3.0,93,74,58,30.32,30.10,15,3,15,0.00
2013-1-27,32.7,29.7,23.7,32.0,24.5,14.0,100,84,64,30.11,29.81,14,3,14,0.07
2013-1-28,34.7,31.7,30.6,34.0,31.7,31.0,100,100,100,29.92,29.66,13,2,13,0.00
2013-1-29,60.5,33.7,28.0,59.0,32.0,23.0,100,95,86,29.76,29.55,22,6,22,0.17
2013-1-30,27.9,17.4,7.9,23.0,12.0,2.0,89,83,77,29.76,29.64,26,11,26,0.00
2013-1-31,7.9,0.3,-8.5,3.0,-5.2,-15.0,89,81,74,30.23,29.76,27,11,27,0.00
2013-2-1,6.8,-3.3,-13.0,5.0,-8.3,-17.0,95,83,64,30.27,30.03,19,4,19,0.00
2013-2-2,12.8,6.8,1.3,8.0,2.4,-3.0,95,86,70,30.16,29.96,10,2,11,0.00
2013-2-3,14.3,10.0,4.1,11.0,5.6,0.0,96,87,72,30.07,29.95,19,5,19,0.00
2013-2-4,16.4,11.1,5.7,11.0,4.4,0.0,96,79,60,30.06,29.77,10,3,10,0.00
2013-2-5,30.7,22.3,7.5,26.0,18.2,5.0,100,88,68,30.08,29.67,23,6,23,0.00
2013-2-6,24.7,15.5,3.3,22.0,12.9,1.0,97,94,88,30.10,29.94,15,3,15,0.00
2013-2-7,29.8,26.0,21.0,26.0,23.1,19.0,100,92,79,30.24,29.97,19,6,19,0.00
2013-2-8,26.9,23.5,20.2,22.0,17.9,13.0,93,83,67,30.35,30.21,14,3,14,0.00
2013-2-9,31.7,28.1,25.0,30.0,26.1,22.0,100,95,92,30.22,29.94,19,6,19,0.00
2013-2-10,34.0,30.7,27.8,34.0,30.2,26.0,100,99,96,29.94,29.30,17,5,19,0.00
2013-2-11,30.2,24.7,17.7,30.0,21.3,14.0,100,90,82,30.04,29.36,26,11,28,0.00
2013-2-12,37.2,25.3,15.2,28.0,20.0,12.0,95,84,67,30.04,29.82,18,5,18,0.07
2013-2-13,40.7,29.5,18.6,34.0,25.9,17.0,100,89,67,29.82,29.58,12,3,12,0.18
2013-2-14,33.7,27.3,15.6,34.0,21.6,4.0,100,83,44,30.17,29.59,22,7,24,0.03
2013-2-15,18.7,11.0,5.3,8.0,3.4,1.0,89,76,54,30.28,30.17,21,6,21,0.00
2013-2-16,18.4,8.2,-1.1,9.0,3.5,-3.0,95,85,68,30.24,30.10,7,1,7,0.00
2013-2-17,31.7,20.9,6.4,25.0,15.5,3.0,92,83,74,30.10,29.65,22,5,22,0.00
2013-2-18,33.6,23.5,6.9,33.0,19.3,3.0,99,88,82,29.80,29.54,25,9,27,0.00
2013-2-19,6.8,3.8,-2.4,4.0,-3.2,-8.0,91,76,66,30.33,29.80,27,10,28,0.00
2013-2-20,19.1,5.8,-8.1,7.0,-1.5,-12.0,90,76,57,30.42,30.33,14,2,14,0.00
2013-2-21,23.6,14.6,4.7,14.0,7.5,1.0,91,77,64,30.41,30.06,16,4,17,0.00
2013-2-22,29.2,23.2,19.6,24.0,20.7,13.0,100,93,78,30.06,29.87,16,5,18,0.00
2013-2-23,28.0,21.0,14.4,23.0,18.5,12.0,100,94,81,29.97,29.86,12,4,13,0.00
2013-2-24,33.9,20.8,4.0,23.0,15.9,2.0,99,86,67,30.09,29.96,7,1,8,0.04
2013-2-25,39.0,28.6,17.4,28.0,23.9,16.0,99,87,65,30.11,30.03,6,1,7,0.05
2013-2-26,39.7,28.8,13.5,30.0,23.9,11.0,100,86,69,30.05,29.88,19,5,20,0.00
2013-2-27,40.3,32.3,28.5,28.0,25.7,23.0,91,80,61,30.02,29.86,24,9,25,0.00
2013-2-28,33.6,29.2,24.0,26.0,21.6,17.0,83,76,69,30.20,30.02,20,7,20,0.00
2013-3-1,32.9,25.1,18.2,21.0,16.6,13.0,84,73,58,30.33,30.20,19,6,19,0.00
2013-3-2,31.0,19.7,6.6,13.0,10.1,4.0,96,71,46,30.33,30.16,9,1,10,0.00
2013-3-3,31.9,23.7,13.4,16.0,12.3,8.0,83,65,52,30.16,29.98,14,4,15,0.00
2013-3-4,26.9,24.3,21.8,24.0,19.2,13.0,100,85,62,30.03,29.94,17,5,18,0.00
2013-3-5,32.2,25.7,22.0,26.0,23.6,18.0,100,95,76,30.28,29.97,17,6,17,0.00
2013-3-6,28.7,22.3,11.5,20.0,17.3,9.0,97,85,71,30.40,30.27,16,4,17,0.00
2013-3-7,31.6,19.0,7.1,21.0,13.6,5.0,99,84,67,30.37,30.27,12,2,12,0.00
2013-3-8,37.8,27.8,16.2,31.0,23.4,14.0,98,88,77,30.30,30.08,16,4,16,0.12
2013-3-9,36.6,35.4,33.3,37.0,35.1,30.0,100,99,84,30.09,29.72,14,4,16,0.97
2013-3-10,40.3,33.6,29.4,38.0,31.6,27.0,100,94,87,29.95,29.78,27,11,27,0.02
2013-3-11,30.1,27.7,22.0,29.0,23.4,18.0,100,88,77,29.86,29.76,22,8,22,0.00
2013-3-12,27.9,23.8,19.7,22.0,16.5,11.0,89,77,57,30.18,29.84,25,8,26,0.00
2013-3-13,31.6,21.6,12.5,19.0,13.9,10.0,95,77,50,30.37,30.18,14,5,16,0.00
2013-3-14,39.9,30.0,22.7,30.0,24.7,18.0,100,85,68,30.24,30.02,14,3,14,0.02
2013-3-15,34.7,31.4,25.1,34.0,29.9,25.0,100,96,90,30.02,29.83,14,4,14,0.15
2013-3-16,26.7,21.2,14.0,25.0,14.9,7.0,100,80,58,30.22,29.90,19,8,20,0.00
2013-3-17,27.4,18.3,8.1,22.0,9.1,0.0,83,71,61,30.24,29.89,22,6,22,0.00
2013-3-18,29.7,21.3,11.6,30.0,17.5,7.0,100,88,77,29.89,29.64,31,12,33,0.00
2013-3-19,22.2,12.7,6.4,8.0,3.5,-1.0,85,70,50,30.18,29.83,26,13,28,0.00
2013-3-20,20.5,12.1,5.2,6.0,1.6,-3.0,76,66,53,30.20,30.11,24,10,25,0.00
2013-3-21,29.2,16.5,2.0,13.0,6.5,-2.0,92,69,50,30.12,30.04,23,2,23,0.00
2013-3-22,36.7,22.4,6.7,18.0,12.3,4.0,94,70,46,30.10,30.04,10,2,10,0.00
2013-3-23,39.2,28.1,15.9,22.0,18.0,13.0,93,70,48,30.15,30.07,10,2,11,0.00
2013-3-24,32.0,29.2,26.7,26.0,22.7,20.0,88,80,68,30.10,29.98,20,6,21,0.00
2013-3-25,38.3,30.3,23.0,22.0,19.2,16.0,81,67,49,30.21,30.03,21,7,21,0.00
2013-3-26,39.2,30.0,24.5,25.0,21.4,19.0,88,75,53,30.29,30.21,13,5,16,0.00
2013-3-27,43.0,31.1,18.5,25.0,20.6,17.0,100,71,44,30.33,30.29,10,1,10,0.00
2013-3-28,43.2,32.5,19.4,30.0,23.9,17.0,97,75,52,30.34,30.27,12,2,12,0.00
2013-3-29,48.0,37.5,27.7,39.0,31.6,25.0,93,81,65,30.28,30.08,14,2,14,0.00
2013-3-30,54.7,43.2,34.3,46.0,39.2,34.0,100,87,65,30.08,29.87,16,5,17,0.16
2013-3-31,39.0,33.2,23.8,34.0,25.1,14.0,100,77,41,30.08,29.83,28,10,29,0.00
2013-4-1,33.8,25.0,17.4,18.0,14.0,11.0,83,67,46,30.25,30.08,22,8,22,0.00
2013-4-2,37.6,27.5,18.8,18.0,15.2,12.0,92,65,42,30.34,30.24,18,5,19,0.00
2013-4-3,47.2,34.0,17.8,33.0,23.4,15.0,97,70,47,30.39,30.08,20,5,22,0.00
2013-4-4,51.4,42.9,34.5,37.0,29.2,23.0,85,61,42,30.18,30.01,25,9,30,0.00
2013-4-5,45.1,34.2,28.1,35.0,26.1,18.0,100,76,45,30.24,29.91,16,4,17,0.09
2013-4-6,57.1,42.5,34.6,49.0,37.6,30.0,100,84,64,29.91,29.54,20,7,20,0.11
2013-4-7,48.9,40.8,35.6,41.0,36.7,33.0,100,86,70,29.96,29.77,12,4,12,0.23
2013-4-8,49.6,43.1,39.3,45.0,42.0,39.0,100,96,83,30.05,29.70,16,4,16,0.09
2013-4-9,43.9,38.7,31.1,39.0,35.3,28.0,100,89,68,30.16,29.97,26,9,26,0.67
2013-4-10,37.7,33.8,28.7,33.0,28.8,24.0,100,85,67,30.19,29.91,22,7,27,0.16
2013-4-11,37.5,33.1,30.3,37.0,31.7,25.0,100,96,68,29.92,29.70,23,6,23,0.31
2013-4-12,35.2,31.0,27.4,33.0,29.5,27.0,100,96,82,29.86,29.69,14,5,14,0.10
2013-4-13,36.2,32.2,28.9,30.0,27.4,25.0,100,86,71,29.97,29.85,16,5,18,0.07
2013-4-14,37.2,32.4,28.8,37.0,30.3,24.0,100,94,78,29.96,29.50,22,6,22,0.70
2013-4-15,39.6,35.8,32.1,37.0,30.0,26.0,100,82,72,30.00,29.58,30,11,33,0.18
2013-4-16,46.2,37.6,32.7,33.0,28.6,26.0,90,74,54,30.32,29.99,19,5,19,0.00
2013-4-17,40.2,36.9,33.6,37.0,32.7,28.0,100,87,75,30.31,29.92,20,5,20,0.54
2013-4-18,34.9,32.3,30.6,35.0,32.3,31.0,100,100,100,29.93,29.54,27,10,28,0.13
2013-4-19,37.9,32.2,29.5,31.0,26.9,21.0,100,84,58,30.00,29.52,28,11,28,0.03
2013-4-20,41.4,32.4,19.5,21.0,17.6,9.0,95,59,35,30.30,30.00,10,2,10,0.21
2013-4-21,51.4,41.0,33.0,48.0,38.4,21.0,100,92,59,30.31,30.04,21,6,24,0.38
2013-4-22,44.4,36.9,32.0,40.0,35.1,32.0,100,94,70,30.22,30.11,17,6,18,0.18
2013-4-23,41.2,34.0,28.7,33.0,27.5,21.0,100,81,50,30.16,30.07,19,4,19,0.18
2013-4-24,51.0,37.3,27.3,37.0,30.6,23.0,98,80,52,30.09,29.93,26,6,26,0.01
2013-4-25,54.5,41.9,33.1,36.0,31.9,27.0,98,72,39,30.23,30.01,18,6,20,0.00
2013-4-26,73.0,58.4,44.5,48.0,42.0,34.0,83,57,33,30.16,30.00,20,6,23,0.00
2013-4-27,76.9,60.6,39.7,51.0,44.1,37.0,91,58,31,30.16,29.95,16,3,17,0.00
2013-4-28,82.9,64.9,53.0,58.0,50.6,47.0,90,63,33,29.94,29.70,27,7,27,0.09
2013-4-29,76.1,63.6,51.8,60.0,51.8,39.0,100,68,45,29.86,29.62,14,3,16,0.00
2013-4-30,72.9,64.9,58.7,62.0,49.4,30.0,92,61,27,30.01,29.50,26,8,27,0.00
2013-5-1,58.4,40.8,34.2,44.0,37.6,33.0,100,91,50,30.48,30.01,24,6,24,0.68
2013-5-2,47.4,39.5,33.6,36.0,31.1,26.0,100,75,51,30.52,30.40,24,7,25,0.09
2013-5-3,39.2,35.2,31.9,37.0,32.2,26.0,100,91,66,30.40,30.16,25,8,25,0.22
2013-5-4,49.7,40.6,33.3,45.0,39.1,33.0,100,95,82,30.18,30.11,16,7,17,0.10
2013-5-5,66.2,50.7,39.0,51.0,43.9,38.0,99,80,55,30.18,30.09,12,4,13,0.00
2013-5-6,78.2,61.7,44.7,52.0,49.1,45.0,100,68,39,30.13,30.04,10,1,10,0.00
2013-5-7,81.1,66.8,52.2,55.0,50.7,45.0,97,61,31,30.09,30.00,13,1,14,0.00
2013-5-8,80.4,65.2,54.1,60.0,53.5,48.0,95,70,36,30.04,29.96,25,2,25,0.17
2013-5-9,60.9,54.3,44.7,59.0,50.8,30.0,98,89,59,30.11,29.98,28,6,28,0.27
2013-5-10,68.7,52.8,38.1,43.0,31.3,25.0,79,49,23,30.12,29.91,16,4,17,0.00
2013-5-11,58.1,47.4,41.8,43.0,28.3,18.0,73,50,31,30.18,29.90,32,12,35,0.00
2013-5-12,58.0,46.3,35.0,30.0,23.5,19.0,71,45,26,30.22,30.10,20,5,20,0.00
2013-5-13,73.0,56.2,36.4,50.0,36.9,26.0,74,51,31,30.13,29.70,20,4,23,0.00
2013-5-14,99.4,76.9,54.5,60.0,50.0,37.0,81,43,20,29.74,29.51,30,7,35,0.00
2013-5-15,79.8,67.6,55.8,52.0,48.8,45.0,72,52,34,29.95,29.72,25,6,25,0.00
2013-5-16,83.9,72.1,58.8,52.0,47.2,38.0,68,43,29,29.95,29.88,23,4,23,0.00
2013-5-17,68.5,57.8,54.8,57.0,53.4,40.0,100,88,36,30.03,29.93,17,5,18,0.39
2013-5-18,82.5,66.2,55.6,70.0,61.7,56.0,100,87,59,30.05,29.83,20,4,21,1.15
2013-5-19,83.7,69.4,62.4,70.0,66.0,58.0,100,90,59,29.85,29.61,29,4,29,1.96
2013-5-20,73.9,66.2,58.2,65.0,62.0,57.0,100,87,62,29.66,29.56,26,5,26,0.52
2013-5-21,149.7,91.1,57.8,99.9,81.1,58.0,100,95,71,29.74,29.57,17,4,17,0.00
2013-5-22,95.9,79.7,52.5,95.0,79.4,49.0,100,99,78,30.00,29.73,19,6,19,0.27
2013-5-23,66.8,56.1,46.4,49.0,39.8,31.0,91,58,34,30.35,30.00,20,6,20,0.00
2013-5-24,71.2,56.1,38.3,55.0,42.9,33.0,95,64,40,30.39,30.18,18,3,18,0.18
2013-5-25,61.7,57.3,54.5,54.0,51.5,46.0,97,81,66,30.28,30.24,19,5,20,0.01
2013-5-26,60.0,56.2,52.8,54.0,47.8,42.0,84,74,60,30.24,30.06,21,5,22,0.00
2013-5-27,62.7,58.4,54.9,61.0,56.2,52.0,100,93,79,30.07,29.87,20,4,20,0.18
2013-5-28,149.8,56.3,59.2,99.9,86.8,59.0,100,99,94,29.88,29.76,12,2,12,0.19
2013-5-29,823.5,10.5,60.8,99.9,97.6,61.0,100,100,100,29.85,29.70,17,2,17,0.44
2013-5-30,824.0,0.0,200.0,99.9,99.9,99.9,100,100,100,29.73,29.58,22,6,27,0.29
2013-5-31,823.9,0.0,200.0,99.9,99.9,99.9,100,100,100,29.62,29.57,31,7,31,0.15
2013-6-1,824.0,0.0,200.0,99.9,99.9,99.9,100,100,100,29.97,29.60,22,5,24,0.23
2013-6-2,824.0,0.0,200.0,99.9,99.9,99.9,100,100,100,30.10,29.97,20,6,21,0.00
2013-6-3,824.1,0.0,200.0,99.9,99.9,99.9,100,100,100,30.09,29.96,13,2,13,0.00
2013-6-4,824.1,0.0,200.0,99.9,99.9,99.9,100,100,100,30.10,30.02,17,4,18,0.04
2013-6-5,824.1,0.0,200.0,99.9,7.1,-463.0,100,100,100,30.08,29.96,10,2,12,0.06
2013-6-6,461.8,0.0,200.0,-99.9,-99.9,-463.0,100,100,100,30.05,29.98,12,4,13,0.00
2013-6-7,461.8,0.0,200.0,-99.9,-99.9,-463.0,100,100,100,30.07,29.94,8,1,8,0.00
2013-6-8,461.8,0.0,200.0,-99.9,-99.9,-463.0,100,100,100,29.95,29.92,12,2,12,0.00
2013-6-9,461.8,0.0,200.0,-99.9,-99.9,-463.0,100,100,100,29.93,29.80,16,4,18,0.00
2013-6-10,461.7,0.0,200.0,-99.9,-99.9,-463.0,100,100,100,29.89,29.83,10,2,11,0.00
2013-6-11,461.8,0.0,200.0,-99.9,-99.9,-463.0,100,100,100,29.92,29.83,9,1,10,0.00
2013-6-12,461.8,0.0,200.0,-99.9,-99.9,-463.0,100,100,100,29.94,29.80,17,4,18,0.00
2013-6-13,461.8,0.0,200.0,-99.9,-99.9,-463.0,100,100,100,30.10,29.94,16,4,17,0.00
2013-6-14,461.8,0.0,200.0,-99.9,-99.9,-463.0,100,100,100,30.10,29.90,17,4,19,0.00
2013-6-15,461.7,0.0,200.0,-99.9,-99.9,-463.0,100,100,100,29.95,29.88,16,2,16,0.00
2013-6-16,461.7,0.0,200.0,-99.9,-99.9,-463.0,100,100,100,29.96,29.88,27,4,30,0.00
2013-6-17,461.8,0.0,200.0,-99.9,-99.9,-463.0,100,100,100,30.03,29.90,17,5,20,0.00
2013-6-18,461.8,0.0,200.0,-99.9,-99.9,-463.0,100,100,100,30.11,30.03,12,3,14,0.00
2013-6-19,461.8,0.0,200.0,-99.9,-99.9,-463.0,100,100,100,30.09,29.98,13,2,14,0.00
2013-6-20,461.8,0.0,200.0,-99.9,-99.9,-463.0,100,100,100,30.03,29.92,20,5,20,0.00
2013-6-21,461.8,0.0,200.0,-99.9,-99.9,-463.0,100,100,100,30.10,29.81,32,4,33,0.00
2013-6-22,461.8,0.0,200.0,-99.9,-99.9,-463.0,100,100,100,30.05,29.88,14,3,17,0.00
2013-6-23,461.8,0.0,200.0,-99.9,-99.9,-463.0,100,100,100,29.94,29.75,24,6,24,0.00
2013-6-24,461.8,0.0,200.0,-99.9,-99.9,-463.0,100,100,100,29.95,29.84,17,2,17,0.00
2013-6-25,461.8,0.0,200.0,-99.9,-99.9,-463.0,100,100,100,29.88,29.77,16,2,16,0.00
2013-6-26,461.8,0.0,200.0,-99.9,-99.9,-463.0,100,100,100,29.87,29.71,19,4,21,0.00
2013-6-27,461.8,0.0,200.0,-99.9,-99.9,-463.0,100,100,100,29.87,29.83,28,6,29,0.00
2013-6-28,461.8,0.0,200.0,-99.9,-99.9,-463.0,100,100,100,29.86,29.79,30,8,30,0.00
2013-6-29,461.8,0.0,200.0,-99.9,-99.9,-463.0,100,100,100,30.01,29.79,19,6,22,0.00
2013-6-30,461.8,0.0,200.0,-99.9,-99.9,-463.0,100,100,100,30.14,30.01,19,3,19,0.00
2013-7-1,461.8,0.0,200.0,-99.9,-99.9,-463.0,100,100,100,30.20,30.14,7,0,8,0.00
2013-8-27,76.8,76.6,75.5,73.0,72.0,70.0,88,86,83,29.95,29.84,14,3,14,0.00
2013-8-28,87.5,71.1,73.7,75.0,58.8,-99.9,100,84,13,30.03,29.94,12,1,14,0.00
2013-8-29,95.3,82.7,74.3,77.0,73.5,67.0,100,77,44,30.04,29.90,13,0,14,0.00
2013-8-30,83.8,77.3,71.9,74.0,68.8,64.0,94,76,58,29.97,29.87,21,4,22,0.00
2013-8-31,89.9,75.4,64.3,72.0,67.2,63.0,99,78,51,29.94,29.77,25,2,25,0.06
2013-9-1,72.5,69.0,63.4,70.0,61.8,55.0,93,79,67,30.02,29.78,20,6,21,0.00
2013-9-2,67.0,59.4,53.3,56.0,53.4,51.0,98,82,65,30.11,30.01,16,2,16,0.00
2013-9-3,78.3,62.4,48.4,61.0,55.6,48.0,100,81,51,30.13,30.03,10,2,12,0.00
2013-9-4,87.8,72.1,57.8,69.0,63.6,58.0,100,77,52,30.18,30.05,16,2,16,0.00
2013-9-5,84.2,72.1,62.3,69.0,62.4,55.0,93,73,58,30.24,30.14,12,2,13,0.00
2013-9-6,92.2,78.2,68.3,71.0,67.8,63.0,100,74,44,30.15,29.93,21,3,22,0.01
2013-9-7,93.5,80.6,71.5,73.0,69.0,65.0,93,70,44,30.06,29.91,19,4,20,0.00
2013-9-8,78.7,71.0,66.2,67.0,64.3,60.0,90,80,66,30.09,29.94,16,4,17,0.00
2013-9-9,94.5,79.1,69.1,75.0,70.0,38.0,100,76,50,29.94,29.71,20,4,20,0.08
2013-9-10,81.5,74.6,68.1,73.0,67.1,63.0,97,79,57,30.03,29.82,14,3,15,0.00
2013-9-11,83.7,73.3,65.3,65.0,60.5,52.0,97,68,37,30.10,30.03,21,4,24,0.00
2013-9-12,72.4,64.7,56.3,55.0,50.9,46.0,90,63,43,30.26,30.10,27,5,28,0.00
2013-9-13,71.8,58.8,46.0,50.0,46.8,43.0,98,68,42,30.31,30.13,18,1,19,0.00
2013-9-14,75.1,60.1,48.0,58.0,50.1,45.0,100,73,41,30.14,29.93,20,3,21,0.58
2013-9-15,65.3,58.3,50.6,60.0,55.1,47.0,100,90,75,30.34,29.93,21,4,21,0.48
2013-9-16,68.8,54.2,42.5,49.0,44.8,41.0,100,74,39,30.43,30.28,13,1,13,0.00
2013-9-17,67.6,55.7,44.7,59.0,51.8,43.0,100,87,65,30.29,29.99,25,4,25,0.00
2013-9-18,74.8,67.5,59.4,71.0,66.5,59.0,100,97,86,30.00,29.77,14,3,16,0.14
2013-9-19,78.0,71.0,65.5,73.0,68.1,60.0,100,91,72,30.00,29.72,24,3,28,0.13
2013-9-20,66.2,58.0,51.5,60.0,53.4,48.0,100,85,62,29.98,29.85,25,7,25,0.02
2013-9-21,65.7,53.4,46.8,50.0,48.1,46.0,100,84,57,30.03,29.95,14,2,14,0.00
2013-9-22,75.5,58.6,43.8,58.0,51.7,44.0,100,81,53,30.01,29.90,17,3,18,0.00
2013-9-23,75.0,62.1,52.3,56.0,52.9,49.0,92,74,49,30.01,29.92,21,4,22,0.00
2013-9-24,77.7,61.8,49.4,57.0,53.2,49.0,100,77,45,30.02,29.95,15,1,16,0.00
2013-9-25,75.5,61.5,49.7,57.0,53.3,50.0,100,78,49,30.03,29.92,15,2,19,0.00
2013-9-26,82.5,67.5,53.5,64.0,57.9,52.0,98,74,50,29.98,29.90,17,4,17,0.00
2013-9-27,85.3,73.4,65.4,65.0,62.7,60.0,85,71,49,29.98,29.87,27,6,27,0.00
2013-9-28,72.8,61.1,47.1,66.0,56.4,46.0,100,85,73,30.00,29.72,35,5,35,0.13
2013-9-29,77.9,62.2,46.0,50.0,47.0,43.0,100,61,33,30.01,29.86,21,4,22,0.00
2013-9-30,80.5,67.8,57.9,56.0,51.9,48.0,74,58,41,29.87,29.67,27,7,28,0.00
2013-10-1,75.5,66.3,50.2,55.0,48.0,36.0,89,56,26,30.04,29.67,25,7,25,0.00
2013-10-2,76.8,60.9,43.8,57.0,46.1,38.0,100,65,28,30.09,29.89,30,3,31,0.31
2013-10-3,66.3,58.5,56.2,61.0,58.3,56.0,100,99,94,29.97,29.86,15,3,17,0.20
2013-10-4,61.7,57.3,55.2,59.0,57.1,55.0,100,99,97,30.02,29.89,20,6,22,0.31
2013-10-5,62.2,55.6,42.7,62.0,53.0,43.0,100,92,70,29.95,29.79,24,2,24,0.09
2013-10-6,59.7,50.2,41.9,50.0,39.5,12.0,100,72,25,29.89,29.74,20,3,20,0.08
2013-10-7,68.2,55.0,46.4,46.0,42.6,39.0,83,66,38,30.03,29.88,14,2,14,0.00
2013-10-8,79.0,62.8,46.3,50.0,45.8,40.0,85,57,35,30.03,29.90,27,5,27,0.00
2013-10-9,77.7,65.9,55.8,56.0,51.9,49.0,80,62,42,30.10,29.98,18,4,18,0.00
2013-10-10,79.7,62.7,48.2,57.0,51.6,47.0,96,71,41,30.09,29.95,13,2,14,0.00
2013-10-11,75.8,66.3,54.6,64.0,57.1,53.0,96,74,53,29.96,29.72,28,6,28,0.32
2013-10-12,63.4,53.9,48.2,60.0,46.7,40.0,90,77,55,30.21,29.77,31,6,33,0.00
2013-10-13,62.4,49.5,41.1,46.0,40.2,36.0,96,74,40,30.44,30.19,12,1,12,0.00
2013-10-14,57.0,49.4,39.0,53.0,43.5,38.0,100,82,58,30.42,29.99,19,3,22,0.40
2013-10-15,70.4,55.2,51.4,60.0,55.1,51.0,100,100,97,30.03,29.74,21,5,22,0.98
2013-10-16,60.9,51.6,41.2,56.0,48.4,41.0,100,90,61,30.00,29.85,22,4,22,0.04
2013-10-17,64.8,52.4,40.4,54.0,46.4,40.0,100,82,48,29.94,29.81,21,4,23,0.10
2013-10-18,62.5,52.2,43.7,53.0,44.7,38.0,100,79,45,30.01,29.89,22,5,22,0.14
2013-10-19,56.3,46.1,40.6,48.0,43.2,39.0,98,90,74,29.91,29.73,29,4,32,0.02
2013-10-20,59.3,47.4,39.7,55.0,45.5,39.0,100,94,73,29.91,29.66,17,4,17,0.04
2013-10-21,48.9,42.9,36.4,45.0,33.6,29.0,88,71,58,30.00,29.90,25,6,25,0.00
2013-10-22,50.2,41.6,31.9,43.0,37.9,30.0,100,88,71,30.06,29.99,15,2,16,0.00
2013-10-23,50.1,42.8,39.8,43.0,35.5,29.0,96,78,60,30.32,30.03,19,5,19,0.00
2013-10-24,50.0,43.9,39.3,40.0,35.1,28.0,88,72,59,30.33,30.12,14,4,14,0.00
2013-10-25,65.3,51.4,35.4,50.0,42.7,34.0,98,75,54,30.34,29.84,25,6,33,0.00
2013-10-26,60.2,49.3,42.9,50.0,39.0,35.0,80,68,56,30.13,29.84,28,8,32,0.00
2013-10-27,65.5,50.5,38.0,43.0,38.8,34.0,86,67,44,30.15,29.86,21,4,22,0.00
2013-10-28,51.1,42.9,37.1,38.0,31.4,26.0,85,66,47,30.44,30.13,22,5,22,0.00
2013-10-29,47.4,42.2,35.8,44.0,34.8,26.0,99,76,68,30.41,30.12,14,2,14,0.04
2013-10-30,71.3,54.8,44.0,71.0,54.8,42.0,100,100,99,30.14,29.73,13,1,14,0.13
2013-10-31,77.1,60.3,54.5,75.0,60.2,54.0,100,100,97,29.75,29.47,18,6,18,0.01
2013-11-1,65.1,57.7,45.8,61.0,53.2,42.0,100,86,64,29.90,29.48,19,6,19,0.00
2013-11-2,59.2,48.6,39.5,49.0,42.1,38.0,99,80,52,30.13,29.90,17,4,19,0.00
2013-11-3,62.9,50.9,40.3,45.0,41.5,38.0,100,73,48,30.14,29.94,28,6,31,0.00
2013-11-4,58.2,52.4,45.7,56.0,47.9,42.0,100,85,66,30.18,29.88,27,5,28,0.18
2013-11-5,63.7,50.3,40.6,55.0,47.1,41.0,100,91,64,30.26,30.04,26,3,27,0.05
2013-11-6,52.2,46.2,40.5,47.0,42.1,37.0,100,87,64,30.19,30.03,19,6,20,0.04
2013-11-7,48.7,43.9,39.3,46.0,42.9,37.0,100,97,91,30.26,30.18,20,4,20,0.00
2013-11-8,58.7,47.9,34.1,56.0,42.5,34.0,100,84,58,30.22,29.66,24,5,25,0.00
2013-11-9,58.7,53.1,45.9,56.0,46.6,38.0,92,79,63,30.22,29.68,35,13,40,0.00
2013-11-10,55.3,50.1,44.7,45.0,42.9,40.0,86,77,65,30.34,30.11,22,4,22,0.00
2013-11-11,50.5,37.1,26.6,45.0,27.4,20.0,95,71,55,30.70,30.12,28,9,28,0.00
2013-11-12,42.2,31.4,22.4,28.0,22.6,18.0,93,74,50,30.76,30.44,14,4,16,0.00
2013-11-13,63.2,49.4,36.3,49.0,37.4,25.0,77,65,53,30.48,29.92,26,6,27,0.00
2013-11-14,58.2,47.4,39.0,46.0,41.5,38.0,97,81,63,29.93,29.81,16,3,16,0.00
2013-11-15,65.3,49.6,34.4,50.0,43.7,34.0,100,82,54,29.90,29.70,15,2,17,0.00
2013-11-16,66.5,54.6,47.2,65.0,53.8,43.0,100,97,78,29.72,29.31,17,4,18,0.28
2013-11-17,62.6,56.7,49.7,59.0,53.9,45.0,100,91,82,29.86,29.39,33,10,33,0.00
2013-11-18,56.9,49.3,39.9,46.0,42.6,38.0,95,78,64,30.27,29.85,35,8,36,0.00
2013-11-19,60.2,49.2,36.8,48.0,42.4,36.0,100,79,58,30.27,29.96,25,6,25,0.00
2013-11-20,55.6,51.8,46.9,47.0,43.6,39.0,100,75,58,30.07,29.93,21,5,24,0.00
2013-11-21,47.9,42.8,38.7,48.0,41.7,33.0,100,96,78,30.50,30.06,22,6,22,0.00
2013-11-22,47.7,37.1,25.0,33.0,27.2,17.0,92,72,45,30.60,30.45,27,7,27,0.00
2013-11-23,29.9,23.7,18.2,17.0,15.2,12.0,88,74,51,30.80,30.59,28,5,28,0.00
2013-11-24,45.0,32.6,18.6,33.0,23.0,14.0,89,72,55,30.69,30.02,26,7,27,0.00
2013-11-25,52.7,47.2,41.5,44.0,39.2,30.0,86,74,64,30.09,29.93,28,9,30,0.00
2013-11-26,44.8,33.9,27.3,37.0,22.0,15.0,78,64,54,30.37,30.09,33,10,36,0.00
2013-11-27,38.1,31.1,21.7,26.0,22.2,18.0,94,73,58,30.37,30.09,15,3,16,0.00
2013-11-28,40.4,35.0,25.3,29.0,26.4,22.0,95,74,63,30.49,30.08,20,4,21,0.00
2013-11-29,46.7,36.0,22.3,37.0,29.5,19.0,95,80,61,30.50,30.15,17,3,19,0.00
2013-11-30,50.1,43.9,34.5,42.0,38.5,34.0,98,82,72,30.17,30.05,11,2,13,0.00
2013-12-1,44.4,38.1,29.7,39.0,34.8,29.0,100,89,77,30.19,29.95,7,0,7,0.00
2013-12-2,48.4,42.6,34.9,47.0,41.6,33.0,100,97,85,29.97,29.63,16,3,16,0.11
2013-12-3,60.6,50.3,47.3,54.0,50.2,47.0,100,100,100,29.82,29.62,12,3,14,0.13
2013-12-4,67.7,48.5,29.8,67.0,48.4,27.0,100,100,94,29.81,29.53,28,6,28,0.00
2013-12-5,33.7,20.5,12.2,27.0,16.3,8.0,94,88,78,30.33,29.71,28,10,32,0.00
2013-12-6,15.8,9.5,5.2,10.0,5.5,1.0,92,87,79,30.61,30.31,18,6,18,0.00
2013-12-7,13.8,7.3,0.8,6.0,2.2,-2.0,92,84,72,30.68,30.53,13,3,13,0.00
2013-12-8,22.0,17.3,10.5,19.0,14.6,5.0,98,93,84,30.53,30.04,10,2,12,0.00
2013-12-9,20.4,5.5,-0.9,18.0,1.3,-7.0,98,87,76,30.12,29.88,26,6,27,0.00
2013-12-10,20.6,11.2,5.2,16.0,6.4,-2.0,95,85,75,30.26,29.77,28,8,32,0.00
2013-12-11,15.7,1.0,-4.2,5.0,-5.2,-9.0,83,78,68,30.55,30.22,25,5,25,0.00
2013-12-12,24.4,17.8,4.6,20.0,12.2,0.0,90,83,72,30.30,30.14,10,2,10,0.00
2013-12-13,23.3,19.9,17.8,18.0,15.3,13.0,94,86,78,30.27,30.12,19,5,20,0.00
2013-12-14,23.1,17.5,8.1,19.0,14.2,4.0,96,90,84,30.27,30.08,20,5,20,0.00
2013-12-15,14.6,9.8,6.9,5.0,2.6,1.0,86,76,62,30.15,30.09,14,4,14,0.00
2013-12-16,33.9,19.5,8.6,32.0,15.4,1.0,98,88,74,30.13,29.93,15,4,16,0.00
2013-12-17,41.7,33.9,17.2,39.0,28.3,14.0,94,82,69,30.12,29.90,32,9,36,0.00
2013-12-18,49.9,34.7,15.0,41.0,30.4,13.0,99,86,71,30.11,29.69,18,3,18,0.00
2013-12-19,40.3,29.4,26.1,37.0,24.7,20.0,93,86,75,30.08,29.83,18,7,18,0.00
2013-12-20,29.0,26.5,25.6,24.0,22.9,21.0,96,90,85,30.03,29.87,16,3,16,0.00
2013-12-21,29.7,26.3,23.6,25.0,22.6,21.0,94,90,83,30.00,29.87,17,3,17,0.00
2013-12-22,24.7,19.6,7.2,23.0,16.7,4.0,95,92,85,30.23,29.95,17,6,18,0.00
2013-12-23,8.3,2.3,-3.2,4.0,-2.5,-8.0,91,84,76,30.48,30.22,19,7,19,0.00
2013-12-24,14.6,3.5,-9.4,11.0,-1.6,-14.0,95,83,56,30.47,30.13,17,3,17,0.00
2013-12-25,33.9,21.8,13.5,30.0,18.0,9.0,98,90,68,30.15,30.04,27,5,27,0.00
2013-12-26,29.7,22.9,15.1,27.0,20.4,13.0,100,94,83,30.17,30.07,9,0,10,0.00
2013-12-27,44.2,31.9,14.6,37.0,29.2,13.0,100,91,74,30.17,29.92,22,4,24,0.26
2013-12-28,52.8,35.6,24.1,39.0,32.5,24.0,100,90,59,30.00,29.68,30,4,30,0.02
2013-12-29,29.6,2.1,-10.1,24.0,-5.0,-16.0,100,76,58,30.29,29.95,28,8,33,0.00
2013-12-30,3.3,-3.6,-11.9,-1.0,-7.3,-16.0,92,87,80,30.28,30.16,6,1,6,0.00
2013-12-31,2.4,-3.7,-8.7,-3.0,-7.9,-12.0,94,86,76,30.38,30.18,8,2,8,0.00
2014-1-1,5.4,-1.0,-6.5,-2.0,-7.5,-13.0,82,77,71,30.45,30.36,11,3,12,0.00
2014-1-2,5.2,-1.9,-9.5,-5.0,-9.5,-15.0,85,74,54,30.47,30.35,11,2,11,0.00